[Iaude] MPEC J301: 2024 JB17 [a=0.94,e=0.13,i=17.5,H=22.2]
    mpec at cfa.harvard.edu 
    mpec at cfa.harvard.edu
       
    Tue May 14 03:37:49 EDT 2024
    
    
  
M.P.E.C. 2024-J301                                 Issued 2024 May 14, 07:36 UT
     The Minor Planet Electronic Circulars contain information on unusual
         minor planets, routine data on comets and natural satellites,
         and occasional editorial announcements.  They are published
    on behalf of Division F of the International Astronomical Union by the
          Minor Planet Center, Smithsonian Astrophysical Observatory,
                          Cambridge, MA 02138, U.S.A.
			  
             Prepared using the Tamkin Foundation Computer Network
                              MPC at CFA.HARVARD.EDU
            URL https://www.minorplanetcenter.net/    ISSN 1523-6714
                                   2024 JB17                                    
Observations:
     K24J17B*1C2024 05 12.20590312 10 23.138+38 56 31.16         20.02GVEJ301G96
     K24J17B 1C2024 05 12.21115412 10 21.522+38 55 52.43         19.90GVEJ301G96
     K24J17B 1C2024 05 12.21641412 10 19.902+38 55 13.58         19.75GVEJ301G96
     K24J17B 1C2024 05 12.22166412 10 18.325+38 54 35.14         19.88GVEJ301G96
     K24J17B  C2024 05 12.24151912 10 12.030+38 52 05.85         19.6 GVEJ301H01
     K24J17B  C2024 05 12.24713912 10 10.325+38 51 24.16         19.8 GVEJ301H01
     K24J17B  C2024 05 12.25558012 10 07.802+38 50 21.57         19.8 GVEJ301H01
     K24J17B  C2024 05 12.26481112 10 05.018+38 49 13.00         19.8 GVEJ301H01
     K24J17B KC2024 05 12.28540012 09 59.051+38 46 42.71         19.87GVEJ301I52
     K24J17B KC2024 05 12.28633312 09 58.766+38 46 35.83         20.04GVEJ301I52
     K24J17B KC2024 05 12.28726912 09 58.493+38 46 28.92         20.16GVEJ301I52
     K24J17B KC2024 05 12.28819812 09 58.208+38 46 21.83         19.99GVEJ301I52
     K24J17B KC2024 05 12.84610912 07 29.60 +37 37 46.2          20.8 GVEJ301K62
     K24J17B 1C2024 05 12.84768 12 07 29.32 +37 37 34.6          21.1 VXEJ301033
     K24J17B 1C2024 05 12.84818 12 07 29.18 +37 37 30.8          20.9 VXEJ301033
     K24J17B 1C2024 05 12.84867 12 07 29.03 +37 37 27.0          21.4 VXEJ301033
     K24J17B KC2024 05 12.85096612 07 28.19 +37 37 10.1          20.1 GVEJ301K62
     K24J17B KC2024 05 12.85344412 07 27.52 +37 36 52.9          20.5 GVEJ301K62
     K24J17B KC2024 05 12.85587412 07 26.83 +37 36 33.6          20.7 GVEJ301K62
     K24J17B KB2024 05 12.91254312 07 11.28 +37 29 42.4          20.0 GXEJ301958
     K24J17B KB2024 05 12.91853512 07 09.49 +37 28 57.3          19.8 GXEJ301958
     K24J17B KB2024 05 12.92448412 07 07.85 +37 28 12.3          19.8 GXEJ301958
     K24J17B KB2024 05 12.93284012 07 04.318+37 27 12.17         20.2 GXEJ301L34
     K24J17B KB2024 05 12.99445312 06 47.90 +37 19 27.2          19.8 GXEJ301I93
     K24J17B KB2024 05 12.99782012 06 46.97 +37 19 01.2          20.5 GXEJ301I93
     K24J17B KB2024 05 13.00102412 06 46.07 +37 18 36.8          20.4 GXEJ301I93
     K24J17B KB2024 05 13.03079312 06 36.984+37 14 51.40         19.6 GXEJ301L34
     K24J17B KC2024 05 13.08081612 06 28.72 +37 09 00.2          20.2 GVEJ301H21
     K24J17B KC2024 05 13.08361312 06 27.91 +37 08 39.4          20.2 GVEJ301H21
     K24J17B KC2024 05 13.08641012 06 27.08 +37 08 19.0          20.5 GVEJ301H21
     K24J17B KC2024 05 13.08920712 06 26.28 +37 07 58.2          20.8 GVEJ301H21
     K24J17B KC2024 05 13.09200212 06 25.48 +37 07 37.6          20.7 GVEJ301H21
     K24J17B 1C2024 05 13.22424812 05 48.966+36 51 21.28         20.54GVEJ301G96
     K24J17B 1C2024 05 13.22944312 05 47.486+36 50 42.14         20.19GVEJ301G96
     K24J17B 1C2024 05 13.23463812 05 45.978+36 50 03.23         20.41GVEJ301G96
     K24J17B 1C2024 05 13.23984512 05 44.462+36 49 23.30         20.14GVEJ301G96
     K24J17B KB2024 05 13.62569 12 04 05.16 +36 01 14.8          19.1 GVEJ301P13
     K24J17B KB2024 05 13.64128 12 04 00.92 +35 59 14.8          19.7 GVEJ301P13
     K24J17B KB2024 05 13.65405 12 03 57.40 +35 57 38.9          19.5 GVEJ301P13
     K24J17B 1C2024 05 13.85573 12 03 08.75 +35 32 20.8          20.4 VXEJ301033
     K24J17B 1C2024 05 13.85642 12 03 08.57 +35 32 15.7          20.5 VXEJ301033
     K24J17B 1C2024 05 13.85710 12 03 08.39 +35 32 10.4          20.4 VXEJ301033
     K24J17B 1C2024 05 13.85778 12 03 08.19 +35 32 05.1          20.5 VXEJ301033
     K24J17B KB2024 05 13.95108 12 02 42.97 +35 20 19.9          18.9 GXEJ301G00
     K24J17B KB2024 05 13.95457 12 02 42.01 +35 19 52.4          19.0 GXEJ301G00
     K24J17B KB2024 05 13.95779 12 02 41.15 +35 19 27.5          19.2 GXEJ301G00
     K24J17B 1C2024 05 13.98466 12 02 34.40 +35 16 01.1          19.9 VXEJ301033
     K24J17B 1C2024 05 13.98535 12 02 34.21 +35 15 55.9          20.0 VXEJ301033
     K24J17B 1C2024 05 13.98603 12 02 34.03 +35 15 50.7          20.0 VXEJ301033
     K24J17B  C2024 05 14.28472812 01 20.208+34 38 39.32         19.6 GVEJ301H01
     K24J17B  C2024 05 14.28921212 01 19.031+34 38 04.90         19.4 GVEJ301H01
     K24J17B  C2024 05 14.29973812 01 16.282+34 36 43.68         19.5 GVEJ301H01
     K24J17B  C2024 05 14.30577012 01 14.718+34 35 57.21         19.3 GVEJ301H01
Observer details:
033 Karl Schwarzschild Observatory, Tautenburg.  Observers C. Heogner, F.
    Ludwig, M. Hartmann, B. Stecklum.  Measurer B. Stecklum.  1.34-m f/3
    Schmidt + CCD.
958 Observatoire de Dax.  Observer P. Dupouy.  0.50-m f/4.5 Reflector + CMO.
G00 AZM Martinsberg, Oed.  Observers M. Jaeger, E. Prosperi.  Measurer M.
    Jaeger.  0.40-m f/3.2 reflector + CMO.
G96 Mt. Lemmon Survey.  Observer K. W. Wierzchos.  Measurers T. Beuden, V. F.
    Carvajal, D. Fay, J. B. Fazekas, D. C. Fuls, A. R. Gibbs, A. D. Grauer, H.
    Groeller, J. K. Hogan, R. A. Kowalski, S. M. Larson, G. J. Leonard, D.
    Rankin, R. L. Seaman, F. C. Shelly, K. W. Wierzchos.  1.5-m reflector +
    10K CCD.
H01 Magdalena Ridge Observatory, Socorro.  Observers W. H. Ryan, E. V. Ryan.
    Measurer W. H. Ryan.  2.4-m f/8.9 Ritchey-Chretien + CCD.
H21 Astronomical Research Observatory, Westfield.  Observer R. Holmes.
    Measurers T. Linder, R. Holmes, L. Horn.  0.76-m f/3.0 astrograph + CCD.
I52 Steward Observatory, Mt. Lemmon Station.  Observer T. Beuden.  Measurers
    T. Beuden, V. F. Carvajal, D. Fay, J. B. Fazekas, D. C. Fuls, A. R. Gibbs,
    A. D. Grauer, H. Groeller, J. K. Hogan, R. A. Kowalski, S. M. Larson, G.
    J. Leonard, D. Rankin, R. L. Seaman, F. C. Shelly, K. W. Wierzchos.  1.0-m
    prime focus + CCD.
I93 St Pardon de Conques.  Observer F. Losse.  0.40-m f/3.7 reflector + CMO.
K62 Teplice Observatory.  Observer Z. Moravec.  0.60-m f/3.3 reflector + CMOS.
L34 Galhassin Robotic Telescope, Isnello.  Observer A. Nastasi.  0.40-m f/3.8
    400mm Reflector + CMO.
P13 Baihuashan Observatory, Beijing.  Observers Z. Wang, B. Liu.  Measurer Z.
    Wang.  0.28-m f/2.2 reflector + CMO.
Orbital elements:
2024 JB17                                                Earth MOID = 0.0412 AU
Epoch 2024 Mar. 31.0 TT = JDT 2460400.5                 MPC                     
M 137.02988              (2000.0)            P               Q                  
n   1.07772227     Peri.  343.54109     +0.71329916     -0.65052424             
a   0.9421748      Node    60.01595     +0.67218001     +0.52961378             
e   0.1253262      Incl.   17.52432     +0.19843976     +0.54435968             
P   0.91           H   22.22          G   0.15           U   7                  
Residuals in seconds of arc
240512 G96  0.1+  0.1+    240512 K62  0.1+  0.4-    240513 P13  0.4-  0.5+
240512 G96  0.0   0.1-    240512 958  0.1-  0.5+    240513 P13  0.3+  1.1-
240512 G96  0.2-  0.2-    240512 958  0.8-  0.1+    240513 P13  0.0   0.1+
240512 G96  0.2+  0.0     240512 958  0.1+  0.5-    240513 033  0.1+  0.0
240512 H01  0.1-  0.1-    240512 L34  0.0   0.2-    240513 033  0.2+  0.1+
240512 H01  0.1-  0.2-    240512 I93  0.1+  0.7+    240513 033  0.3+  0.0
240512 H01  0.1+  0.1-    240512 I93  0.3+  0.1+    240513 033  0.1+  0.2-
240512 H01  0.0   0.1-    240513 I93  0.3+  0.2-    240513 G00  0.8+  0.9+
240512 I52  0.1+  0.0     240513 L34  0.2-  0.6+    240513 G00  0.3+  0.1+
240512 I52  0.0   0.0     240513 H21  0.2+  0.1-    240513 G00  0.1+  0.2-
240512 I52  0.1+  0.1+    240513 H21  0.1+  0.2-    240513 033  0.1+  0.0
240512 I52  0.0   0.1-    240513 H21  0.2-  0.1+    240513 033  0.0   0.1+
240512 K62  0.4-  0.2-    240513 H21  0.0   0.1-    240513 033  0.1-  0.1+
240512 033  0.1+  0.1+    240513 H21  0.1+  0.0     240514 H01  0.1+  0.1-
240512 033  0.1+  0.0     240513 G96  0.1-  0.3+    240514 H01  0.1+  0.0
240512 033  0.0   0.2-    240513 G96  0.0   0.2+    240514 H01  0.1+  0.1-
240512 K62  0.5-  0.3-    240513 G96  0.2-  0.3+    240514 H01  0.1+  0.1-
240512 K62  0.0   0.8+    240513 G96  0.5-  0.4-
Ephemeris:
2024 JB17                a,e,i = 0.94, 0.13, 18                  q = 0.8241
Date    TT    R. A. (2000) Decl.     Delta      r    Elong.  Phase     V
2024 04 14    16 12 06.1 +67 22 26   0.1998  1.0493    97.9    71.2    21.3
...
2024 04 29    13 40 46.8 +60 04 26   0.1568  1.0583   104.9    66.8    20.7
...
2024 05 07    12 38 38.8 +48 47 32   0.1406  1.0601   107.6    65.1    20.4
...
2024 05 13    12 06 49.5 +37 19 08   0.1347  1.0601   108.1    64.9    20.3
2024 05 14    12 02 33.6 +35 14 40   0.1343  1.0600   108.1    65.0    20.3
2024 05 15    11 58 33.2 +33 08 32   0.1341  1.0598   107.9    65.2    20.3
...
2024 05 21    11 39 05.9 +20 21 43   0.1368  1.0582   106.1    66.8    20.4
...
2024 05 29    11 22 09.5 +04 36 18   0.1500  1.0542   101.7    70.3    20.7
...
2024 06 13    11 06 06.0 -17 01 41   0.1933  1.0413    92.3    77.0    21.4
A. U. Tomatic                (C) Copyright 2024 MPC           M.P.E.C. 2024-J301
    
    
More information about the Iaude
mailing list